Tracking 29932 objects as of 3-Dec-2024
HD Live streaming from Space Station
objects crossing your sky now

STARLINK-30370

Track STARLINK-30370 now!
10-day predictions
STARLINK-30370 is classified as:


NORAD ID: 57751
Int'l Code: 2023-131V
Perigee: 565.6 km
Apogee: 566.9 km
Inclination: 43.0 °
Period: 95.8 minutes
Semi major axis: 6937 km
RCS: Unknown
Launch date: September 1, 2023
Source: United States (US)
Launch site: AIR FORCE EASTERN TEST RANGE (AFETR)
Your satellite tracking list
Your tracking list is empty




NASA's NSSDC Master Catalog

Two Line Element Set (TLE):
1 57751U 23131V   24337.74668265 -.00002787  00000-0 -19135-3 0  9996
2 57751  42.9996 149.3214 0000939 280.3972  79.6765 15.02533817 70587
Source of the keplerian elements: AFSPC